| time (UTC) | temp F | wind direction | speed MPH | gust MPH | rain 1hr in | rain 24hr in | rain mn in | humidity % | barometer mb |
| 20260905014513 | 61 | 359 | 0.0 | 2.0 | 0.00 | 0.00 | 0.00 | 93 | 1008.9 |
| 20260905013028 | 61 | 359 | 0.0 | 0.0 | 0.00 | 0.00 | 0.00 | 93 | 1008.9 |
| 20260905011508 | 61 | 266 | 0.0 | 0.0 | 0.00 | 0.00 | 0.00 | 92 | 1009.0 |
| 20260905010012 | 61 | 359 | 0.0 | 0.0 | 0.00 | 0.00 | 0.00 | 91 | 1008.9 |
| 20260905004519 | 62 | 359 | 0.0 | 0.0 | 0.00 | 0.00 | 0.00 | 90 | 1008.9 |
| 20260905003010 | 62 | 266 | 0.0 | 0.0 | 0.00 | 0.00 | 0.00 | 90 | 1008.6 |
| 20260905001520 | 63 | 87 | 0.0 | 0.0 | 0.00 | 0.00 | 0.00 | 90 | 1008.5 |
| 20260905000022 | 63 | 159 | 0.0 | 2.0 | 0.00 | 0.00 | 0.00 | 89 | 1008.4 |
| 20260904234518 | 64 | 281 | 0.0 | 0.0 | 0.00 | 0.00 | 0.00 | 89 | 1008.3 |
| 20260904233020 | 65 | 359 | 0.0 | 0.0 | 0.00 | 0.00 | 0.00 | 90 | 1008.1 |
| 20260904231520 | 65 | 359 | 0.0 | 0.0 | 0.00 | 0.00 | 0.00 | 89 | 1008.2 |
| 20260904230011 | 65 | 359 | 0.0 | 0.0 | 0.00 | 0.00 | 0.00 | 89 | 1008.5 |
| 20260904224515 | 66 | 280 | 0.0 | 0.0 | 0.00 | 0.00 | 0.00 | 89 | 1008.4 |
| 20260904223018 | 66 | 359 | 0.0 | 1.0 | 0.00 | 0.00 | 0.00 | 88 | 1008.3 |
| 20260904221505 | 66 | 280 | 0.0 | 1.0 | 0.00 | 0.00 | 0.00 | 88 | 1008.3 |
| 20260904220019 | 66 | 8 | 0.0 | 4.0 | 0.00 | 0.00 | 0.00 | 88 | 1008.3 |
| 20260904214521 | 66 | 296 | 0.0 | 0.0 | 0.00 | 0.00 | 0.00 | 88 | 1008.2 |
| 20260904213012 | 66 | 296 | 2.0 | 7.0 | 0.00 | 0.00 | 0.00 | 85 | 1008.4 |
| 20260904211513 | 67 | 315 | 0.0 | 7.0 | 0.00 | 0.00 | 0.00 | 85 | 1008.3 |
| 20260904210014 | 67 | 325 | 5.0 | 10.0 | 0.00 | 0.00 | 0.00 | 82 | 1008.3 |
| 20260904204521 | 68 | 341 | 0.0 | 2.0 | 0.00 | 0.00 | 0.00 | 84 | 1008.2 |
| 20260904203010 | 68 | 343 | 1.0 | 13.0 | 0.00 | 0.00 | 0.00 | 80 | 1008.5 |
| 20260904201510 | 69 | 359 | 2.0 | 9.0 | 0.00 | 0.00 | 0.00 | 76 | 1008.3 |
| 20260904200017 | 70 | 359 | 0.0 | 7.0 | 0.00 | 0.00 | 0.00 | 75 | 1008.1 |
| 20260904194520 | 70 | 317 | 1.0 | 9.0 | 0.00 | 0.00 | 0.00 | 73 | 1008.2 |
| 20260904193012 | 71 | 323 | 4.0 | 15.0 | 0.00 | 0.00 | 0.00 | 72 | 1008.1 |
| 20260904191513 | 71 | 312 | 1.0 | 11.0 | 0.00 | 0.00 | 0.00 | 73 | 1008.1 |
| 20260904190018 | 71 | 359 | 3.0 | 7.0 | 0.00 | 0.00 | 0.00 | 77 | 1008.2 |
| 20260904184526 | 71 | 312 | 0.0 | 8.0 | 0.00 | 0.00 | 0.00 | 73 | 1008.3 |
| 20260904183008 | 70 | 11 | 0.0 | 10.0 | 0.00 | 0.00 | 0.00 | 72 | 1008.4 |
| 20260904181536 | 70 | 310 | 0.0 | 5.0 | 0.00 | 0.00 | 0.00 | 79 | 1008.5 |
| 20260904180014 | 70 | 297 | 0.0 | 7.0 | 0.00 | 0.00 | 0.00 | 80 | 1008.5 |
| 20260904174518 | 71 | 283 | 0.0 | 6.0 | 0.00 | 0.00 | 0.00 | 73 | 1008.5 |
| 20260904173023 | 71 | 293 | 5.0 | 14.0 | 0.00 | 0.00 | 0.00 | 71 | 1008.5 |
| 20260904171504 | 72 | 323 | 1.0 | 10.0 | 0.00 | 0.00 | 0.00 | 69 | 1008.5 |
| 20260904170007 | 72 | 359 | 6.0 | 12.0 | 0.00 | 0.00 | 0.00 | 69 | 1008.3 |
| 20260904164518 | 72 | 299 | 7.0 | 13.0 | 0.00 | 0.00 | 0.00 | 67 | 1008.3 |
| 20260904163025 | 73 | 312 | 5.0 | 14.0 | 0.00 | 0.00 | 0.00 | 64 | 1008.3 |
| 20260904161511 | 73 | 281 | 4.0 | 11.0 | 0.00 | 0.00 | 0.00 | 70 | 1008.4 |
| 20260904160016 | 71 | 320 | 2.0 | 16.0 | 0.00 | 0.00 | 0.00 | 74 | 1008.5 |
| 20260904154540 | 71 | 308 | 0.0 | 15.0 | 0.00 | 0.00 | 0.00 | 72 | 1008.8 |
| 20260904153017 | 71 | 305 | 5.0 | 13.0 | 0.00 | 0.00 | 0.00 | 70 | 1008.7 |
| 20260904151523 | 69 | 359 | 3.0 | 12.0 | 0.00 | 0.00 | 0.00 | 78 | 1008.8 |
| 20260904150012 | 66 | 304 | 8.0 | 16.0 | 0.00 | 0.00 | 0.00 | 83 | 1008.9 |
| 20260904144520 | 66 | 309 | 0.0 | 7.0 | 0.00 | 0.00 | 0.00 | 90 | 1008.7 |
| 20260904143025 | 65 | 359 | 0.0 | 6.0 | 0.00 | 0.00 | 0.00 | 91 | 1008.9 |
| 20260904141508 | 65 | 337 | 1.0 | 6.0 | 0.00 | 0.00 | 0.00 | 91 | 1008.7 |
| 20260904140032 | 65 | 359 | 0.0 | 8.0 | 0.00 | 0.00 | 0.00 | 91 | 1008.8 |
| 20260904134505 | 66 | 268 | 2.0 | 5.0 | 0.00 | 0.00 | 0.00 | 91 | 1008.7 |
| 20260904133015 | 65 | 359 | 3.0 | 7.0 | 0.00 | 0.00 | 0.00 | 90 | 1008.8 |
| 20260904131529 | 65 | 35 | 0.0 | 2.0 | 0.00 | 0.00 | 0.00 | 92 | 1008.8 |
| 20260904130015 | 64 | 37 | 0.0 | 2.0 | 0.00 | 0.01 | 0.00 | 93 | 1008.9 |
| 20260904124523 | 63 | 4 | 0.0 | 4.0 | 0.00 | 0.01 | 0.00 | 94 | 1008.9 |
| 20260904123014 | 63 | 359 | 0.0 | 1.0 | 0.00 | 0.01 | 0.00 | 94 | 1008.9 |
| 20260904121515 | 62 | 359 | 3.0 | 9.0 | 0.00 | 0.01 | 0.00 | 95 | 1008.8 |
| 20260904120021 | 61 | 359 | 3.0 | 9.0 | 0.00 | 0.01 | 0.00 | 96 | 1009.0 |
| 20260904114511 | 61 | 359 | 2.0 | 9.0 | 0.00 | 0.01 | 0.00 | 96 | 1008.8 |
| 20260904113021 | 60 | 324 | 1.0 | 8.0 | 0.00 | 0.01 | 0.00 | 96 | 1008.6 |
| 20260904111510 | 60 | 310 | 0.0 | 1.0 | 0.00 | 0.01 | 0.00 | 96 | 1008.4 |
| 20260904110019 | 59 | 326 | 0.0 | 5.0 | 0.00 | 0.01 | 0.00 | 96 | 1008.3 |
| 20260904104509 | 59 | 110 | 0.0 | 0.0 | 0.00 | 0.01 | 0.00 | 95 | 1008.2 |
| 20260904103005 | 58 | 110 | 0.0 | 0.0 | 0.00 | 0.01 | 0.00 | 95 | 1008.1 |
| 20260904101511 | 58 | 110 | 0.0 | 0.0 | 0.00 | 0.01 | 0.00 | 95 | 1008.1 |
| 20260904100029 | 59 | 110 | 0.0 | 0.0 | 0.00 | 0.01 | 0.00 | 95 | 1008.0 |
| 20260904094508 | 59 | 110 | 0.0 | 0.0 | 0.00 | 0.01 | 0.00 | 95 | 1007.9 |
| 20260904093019 | 59 | 68 | 0.0 | 0.0 | 0.00 | 0.01 | 0.00 | 95 | 1007.9 |
| 20260904091508 | 60 | 104 | 0.0 | 0.0 | 0.00 | 0.01 | 0.00 | 95 | 1007.9 |
| 20260904090020 | 60 | 106 | 0.0 | 0.0 | 0.00 | 0.01 | 0.00 | 95 | 1007.9 |
| 20260904084506 | 60 | 106 | 0.0 | 0.0 | 0.00 | 0.01 | 0.00 | 94 | 1007.8 |
| 20260904083018 | 61 | 143 | 0.0 | 0.0 | 0.00 | 0.01 | 0.00 | 94 | 1007.7 |
| 20260904081506 | 61 | 141 | 0.0 | 5.0 | 0.00 | 0.01 | 0.00 | 94 | 1007.7 |
| 20260904080019 | 61 | 38 | 0.0 | 0.0 | 0.00 | 0.01 | 0.00 | 95 | 1007.8 |
| 20260904074509 | 61 | 328 | 0.0 | 6.0 | 0.00 | 0.01 | 0.00 | 95 | 1007.7 |
| 20260904073017 | 61 | 308 | 2.0 | 8.0 | 0.00 | 0.01 | 0.00 | 96 | 1007.7 |
| 20260904071507 | 60 | 12 | 0.0 | 8.0 | 0.00 | 0.01 | 0.00 | 95 | 1007.7 |
| 20260904070020 | 60 | 287 | 0.0 | 0.0 | 0.00 | 0.01 | 0.00 | 95 | 1007.6 |
| 20260904064512 | 60 | 39 | 0.0 | 0.0 | 0.00 | 0.01 | 0.00 | 95 | 1007.6 |
| 20260904063024 | 61 | 39 | 0.0 | 0.0 | 0.00 | 0.01 | 0.00 | 95 | 1007.7 |
| 20260904061510 | 61 | 39 | 0.0 | 0.0 | 0.00 | 0.01 | 0.00 | 95 | 1007.9 |
| 20260904060016 | 61 | 39 | 0.0 | 0.0 | 0.00 | 0.13 | 0.00 | 95 | 1007.9 |
| 20260904054508 | 61 | 37 | 0.0 | 0.0 | 0.00 | 0.13 | 0.00 | 95 | 1007.9 |
| 20260904053020 | 61 | 341 | 0.0 | 0.0 | 0.00 | 0.13 | 0.00 | 95 | 1008.0 |
| 20260904051507 | 61 | 341 | 0.0 | 0.0 | 0.00 | 0.13 | 0.00 | 94 | 1008.1 |
| 20260904050014 | 62 | 252 | 0.0 | 0.0 | 0.00 | 0.22 | 0.00 | 94 | 1008.1 |
| 20260904044525 | 62 | 247 | 0.0 | 0.0 | 0.00 | 0.22 | 0.00 | 94 | 1008.2 |
| 20260904043012 | 63 | 245 | 0.0 | 0.0 | 0.00 | 0.22 | 0.00 | 94 | 1008.3 |
| 20260904041522 | 63 | 245 | 0.0 | 0.0 | 0.00 | 0.22 | 0.00 | 94 | 1008.4 |
| 20260904040013 | 63 | 246 | 0.0 | 0.0 | 0.00 | 0.45 | 0.22 | 94 | 1008.7 |
| 20260904034520 | 63 | 246 | 0.0 | 0.0 | 0.00 | 0.45 | 0.22 | 94 | 1008.6 |
| 20260904033014 | 64 | 359 | 0.0 | 0.0 | 0.00 | 0.45 | 0.22 | 94 | 1008.5 |
| 20260904031521 | 63 | 246 | 0.0 | 0.0 | 0.00 | 0.45 | 0.22 | 94 | 1008.5 |
| 20260904030009 | 63 | 246 | 0.0 | 0.0 | 0.00 | 0.52 | 0.22 | 94 | 1008.5 |
| 20260904024520 | 64 | 245 | 0.0 | 0.0 | 0.00 | 0.52 | 0.22 | 93 | 1008.5 |
| 20260904023008 | 64 | 359 | 0.0 | 0.0 | 0.00 | 0.52 | 0.22 | 93 | 1008.5 |
| 20260904021517 | 64 | 245 | 0.0 | 0.0 | 0.00 | 0.52 | 0.22 | 93 | 1008.6 |
| 20260904020009 | 64 | 359 | 0.0 | 0.0 | 0.00 | 0.55 | 0.22 | 93 | 1008.7 |